{"data":{"norad_id":68384,"intl_designator":"2026-063E","name":"STARLINK-37137","alt_names":[],"object_type":"PAYLOAD","status":"ACTIVE","operator":null,"country":"US","launch_date":"2026-03-26","launch_site_code":"AFWTR","launch_vehicle":null,"mission":null,"orbit_class":"UNKNOWN","rcs_meters":null,"size_class":null,"mass_kg":null,"dimensions":null,"purposes":["comms"],"wikipedia_slug":null,"has_3d_model":false,"image_url":null,"decayed_at":null,"tle_current":{"epoch":"2026-09-20T02:51:15.176160Z","epoch_age_seconds":80563,"freshness":"FRESH","line1":"1 68384U 26063E   26263.11892565  .00019714  00000+0  61085-3 0  9996","line2":"2 68384  97.2847  44.0359 0001165 269.4873  90.6236 15.33471994 27691","mean_motion":15.33471994,"eccentricity":0.0001165,"inclination_deg":97.2847,"raan_deg":44.0359,"arg_perigee_deg":269.4873,"mean_anomaly_deg":90.6236,"bstar":0.00061085,"rev_number":2769,"period_min":93.904551608003,"perigee_km":464.66558112045,"apogee_km":466.26013988795,"semimajor_km":6843.5998605042,"source":"CELESTRAK","updated_at":"2026-09-20T09:00:43.893019Z"}}}